COSMOS 1275 DEB, 12666

Orbit data source: Space-Track

COSMOS 1275 DEB, 12666 is space debris in LEO originally from a launch on Thu, 04 Jun 1981 UTC launched from the Plesetsk Missile And Space Complex (PKMTR). Debris objects in space refer to the collection of defunct objects orbiting the Earth. Examples of debris include non-operational satellites, rocket bodies, and fragments generated from explosions, collisions, or faulty payload assembly.

Loading next visibility...
Identifier
12666, 1981-053W
Orbit
LEO
Country
Flag of CISCIS
Related business
Manufacturer
Unknown
Mission
Spacecraft
Bus & Motor
Unknown
Mass
Unknown
Launch date (UTC)
1981-06-04 (45 years ago)
Launch vehicle
Unknown
Launch site
Plesetsk Missile And Space Complex (PKMTR)
Object type
Payload
Rocket body
Debris
Shape & HBR
Unknown shape, 0.2 m
Radar Cross Section
Small (<0.1 m²)

Expand to show TLE details & history
Last TLE update: 12 hours ago

TLE from 12 hours ago
0 COSMOS 1275 DEB
1 12666U 81053W   26034.55088718  .00000439  00000-0  44289-3 0  9991
2 12666  82.8748 320.6164 0067069 265.5475 284.9975 13.74338638224721
Epoch: 2026-02-03T13:13Z
TLE epoch observation values (Epoch: 2026-02-03T13:13:16.652Z)
Latitude
-9.89578°
Longitude
169.80987°
Altitude
976.281 km
Speed
7.369 km/s
True Right ascension
09h 27m 26s
True Declination
-9° 50' 22"
Sunlit
Object was in full shadow at epoch
Visualization orbit readout
Latitude
Unknown
Longitude
Unknown
Altitude
Unknown
Speed
Unknown
Apparent Right ascension
Unknown
Apparent Declination
Unknown
Sunlit
N/A
Visualization observer readout
Local Sidereal Time
03:14:00
Azimuth
Unknown
Elevation
Unknown
Doppler factor
Unknown
Orbital elements
Apogee altitude
1,030.546 km
Perigee altitude
931.83 km
Semi-major axis
7,359.325 km
Eccentricity
0.00671
Inclination
82.8748°
RAAN
320.6164°
Arg. of periapsis
265.5475°
True anomaly
284.25353°
Mean anomaly
284.9975°
Eccentric anomaly
284.62568°
Mean motion
3.43784 °/min
Orbital period
104.72 mins
BSTAR
0.00044289
Loading maneuver chart data...
Computing Atmospheric mass density...
Loading historical data...
Loading historical data...
Loading historical data...
Loading historical data...
Loading historical data...
Loading historical data...
Loading historical data...

Documentation

Showing up to 5 results
|